Location: Utrecht
(52.0907°N, 5.1214°E)
Time: 12:40:16
(UTC+02:00)

NANOSAT C BR1 - Pass Details

Date: 28 June 2022
Orbit: 584 x 599 km, 98.0° (Epoch: 13 August)

Event Time Altitude Azimuth Distance (km) Brightness Sun altitude
Rises 02:44:40 0° 27° (NNE) 2,847 ? -13.4°
Reaches altitude 10° 02:47:27 10° 47° (NE) 1,942 ? -13.3°
Maximum altitude 02:50:21 18° 90° (E) 1,497 ? -13.2°
Drops below altitude 10° 02:53:13 10° 134° (SE) 1,937 ? -13.1°
Enters shadow 02:54:21 - 144° (SE) 2,273 ? -13.0°
